SL-16 DEB, 18417

Orbit data source: Space-Track

SL-16 DEB, 18417 is space debris in LEO originally from a launch on Wed, 18 Mar 1987 UTC launched from the Tyuratam Missile And Space Complex (TTMTR). Debris objects in space refer to the collection of defunct objects orbiting the Earth. Examples of debris include non-operational satellites, rocket bodies, and fragments generated from explosions, collisions, or faulty payload assembly.

Loading next visibility...
Identifier
18417, 1987-027D
Orbit
LEO
Country
Flag of CISCIS
Related business
Manufacturer
Yuzhnoe
Mission
Spacecraft
Bus & Motor
SEP MOTOR COVER, Unknown motor
Mass
~0 kg wet, ~1 kg dry
Launch date (UTC)
1987-03-18 (39 years ago)
Launch vehicle
Unknown
Launch site
Tyuratam Missile And Space Complex (TTMTR)
Object type
Payload
Rocket body
Debris
Shape & HBR
Unknown
Radar Cross Section
Small (<0.1 m²)

Expand to show TLE details & history
Last TLE update: 10 hours ago

TLE from 10 hours ago
0 SL-16 DEB
1 18417U 87027D   25258.46566721  .00000045  00000-0  81077-4 0  9990
2 18417  70.9997 162.8837 0203366 307.6945 235.0593 13.74582413929761
Epoch: 2025-09-15T11:10Z
TLE epoch observation values (Epoch: 2025-09-15T11:10:33.646Z)
Latitude
-0.93284°
Longitude
-179.10682°
Altitude
1,073.407 km
Speed
7.272 km/s
True Right ascension
22h 52m 48s
True Declination
0° 55' 39"
Sunlit
Object was in full shadow at epoch
Visualization orbit readout
Latitude
Unknown
Longitude
Unknown
Altitude
Unknown
Speed
Unknown
Apparent Right ascension
Unknown
Apparent Declination
Unknown
Sunlit
N/A
Visualization observer readout
Local Sidereal Time
13:52:24
Azimuth
Unknown
Elevation
Unknown
Doppler factor
Unknown
Orbital elements
Apogee altitude
1,130.791 km
Perigee altitude
831.466 km
Semi-major axis
7,359.266 km
Eccentricity
0.02034
Inclination
70.9997°
RAAN
162.8837°
Arg. of periapsis
307.6945°
True anomaly
233.17673°
Mean anomaly
235.0593°
Eccentric anomaly
234.11526°
Mean motion
3.43789 °/min
Orbital period
104.72 mins
BSTAR
0.000081077
Loading maneuver chart data...
Computing Atmospheric mass density...
Loading historical data...
Loading historical data...
Loading historical data...
Loading historical data...
Loading historical data...
Loading historical data...
Loading historical data...

Documentation

Showing up to 5 results
|